TimeCST,TemperatureF,Dew PointF,Humidity,Sea Level PressureIn,VisibilityMPH,Wind Direction,Wind SpeedMPH,Gust SpeedMPH,PrecipitationIn,Events,Conditions,WindDirDegrees,DateUTC
12:39 AM,60.8,59.0,94,29.92,4.0,East,5.8,-,0.04,Rain,Rain,90,2013-02-05 06:39:00
12:53 AM,61.0,60.1,97,29.96,2.0,WSW,3.5,-,0.08,Rain,Heavy Rain,250,2013-02-05 06:53:00
12:57 AM,60.8,60.8,100,29.94,1.0,South,4.6,-,0.07,Rain,Heavy Rain,170,2013-02-05 06:57:00
1:05 AM,60.8,59.0,94,29.92,0.8,ESE,9.2,-,0.37,Rain,Heavy Rain,120,2013-02-05 07:05:00
1:12 AM,60.8,59.0,94,29.92,1.5,ESE,6.9,-,0.52,Rain,Heavy Rain,120,2013-02-05 07:12:00
1:48 AM,62.6,60.8,94,29.92,2.5,SSE,8.1,-,1.16,Rain,Heavy Rain,150,2013-02-05 07:48:00
1:53 AM,61.0,60.1,97,29.94,4.0,SE,6.9,-,1.18,Rain,Heavy Rain,130,2013-02-05 07:53:00
2:09 AM,60.8,60.8,100,29.92,5.0,Calm,Calm,-,0.04,Rain,Rain,0,2013-02-05 08:09:00
2:19 AM,62.6,60.8,94,29.91,6.0,ESE,4.6,-,0.06,Rain,Rain,110,2013-02-05 08:19:00
2:40 AM,62.6,60.8,94,29.91,6.0,East,3.5,-,0.10,Rain,Rain,100,2013-02-05 08:40:00
2:50 AM,62.6,60.8,94,29.91,8.0,ESE,4.6,-,0.12,Rain,Rain,120,2013-02-05 08:50:00
2:53 AM,62.1,60.1,93,29.94,8.0,ESE,3.5,-,0.12,Rain,Rain,110,2013-02-05 08:53:00
3:09 AM,62.6,60.8,94,29.92,8.0,Calm,Calm,-,0.02,Rain,Light Rain,0,2013-02-05 09:09:00
3:53 AM,61.0,60.1,97,29.94,8.0,Calm,Calm,-,0.07,Rain,Light Rain,0,2013-02-05 09:53:00
4:46 AM,60.8,59.0,94,29.91,5.0,ESE,8.1,-,0.09,Rain,Light Rain,120,2013-02-05 10:46:00
4:53 AM,61.0,59.0,93,29.94,3.0,ESE,6.9,-,0.13,Rain,Heavy Rain,120,2013-02-05 10:53:00
5:34 AM,60.8,59.0,94,29.93,10.0,East,4.6,-,0.06,,Overcast,100,2013-02-05 11:34:00
5:53 AM,60.8,59.0,94,29.93,4.0,ESE,3.5,-,N/A,Rain,Heavy Rain,110,2013-02-05 11:53:00
6:21 AM,60.8,59.0,94,29.94,10.0,SE,4.6,-,0.04,,Mostly Cloudy,130,2013-02-05 12:21:00
6:44 AM,60.8,59.0,94,29.95,10.0,SSE,3.5,-,0.04,,Mostly Cloudy,160,2013-02-05 12:44:00
6:53 AM,60.1,59.0,96,29.97,10.0,SSE,4.6,-,0.04,,Mostly Cloudy,150,2013-02-05 12:53:00
7:53 AM,60.1,59.0,96,29.99,6.0,South,4.6,-,N/A,,Overcast,180,2013-02-05 13:53:00
8:18 AM,60.8,59.0,94,29.97,7.0,Calm,Calm,-,N/A,,Overcast,0,2013-02-05 14:18:00
8:53 AM,63.0,60.1,90,30.00,10.0,Calm,Calm,-,N/A,,Overcast,0,2013-02-05 14:53:00
9:53 AM,66.2,62.6,88,30.00,10.0,Calm,Calm,-,N/A,,Overcast,0,2013-02-05 15:53:00
10:42 AM,68.0,62.6,83,30.01,10.0,Calm,Calm,-,N/A,,Scattered Clouds,0,2013-02-05 16:42:00
10:53 AM,70.0,63.0,78,30.03,10.0,Calm,Calm,-,N/A,,Clear,0,2013-02-05 16:53:00
11:06 AM,69.8,64.4,83,30.01,10.0,Calm,Calm,-,N/A,,Mostly Cloudy,0,2013-02-05 17:06:00
11:16 AM,69.8,62.6,78,30.01,10.0,Calm,Calm,-,N/A,,Mostly Cloudy,0,2013-02-05 17:16:00
11:37 AM,69.8,62.6,78,30.01,10.0,NE,3.5,-,N/A,,Overcast,50,2013-02-05 17:37:00
11:53 AM,69.1,63.0,81,30.02,10.0,East,4.6,-,N/A,,Mostly Cloudy,90,2013-02-05 17:53:00
12:00 PM,69.8,62.6,78,30.00,10.0,East,3.5,-,N/A,,Mostly Cloudy,80,2013-02-05 18:00:00
12:53 PM,73.0,63.0,71,30.00,10.0,Variable,3.5,-,N/A,,Mostly Cloudy,0,2013-02-05 18:53:00
1:05 PM,73.4,62.6,69,29.98,10.0,SE,3.5,-,N/A,,Mostly Cloudy,130,2013-02-05 19:05:00
1:53 PM,73.0,63.0,71,29.98,10.0,ENE,10.4,-,N/A,,Overcast,60,2013-02-05 19:53:00
2:03 PM,71.6,62.6,73,29.96,10.0,ENE,10.4,-,N/A,,Overcast,60,2013-02-05 20:03:00
2:46 PM,68.0,64.4,88,29.95,3.0,East,5.8,-,0.06,Rain,Rain,80,2013-02-05 20:46:00
2:53 PM,68.0,64.0,87,29.98,2.0,East,3.5,-,0.11,Rain,Heavy Rain,80,2013-02-05 20:53:00
3:03 PM,68.0,64.4,88,29.95,6.0,East,3.5,-,0.02,Rain,Rain,80,2013-02-05 21:03:00
3:53 PM,70.0,64.0,81,29.97,10.0,ESE,5.8,-,0.03,,Partly Cloudy,110,2013-02-05 21:53:00
4:53 PM,70.0,64.0,81,29.97,10.0,ESE,6.9,-,N/A,,Clear,120,2013-02-05 22:53:00
5:53 PM,68.0,63.0,84,29.99,10.0,ESE,3.5,-,N/A,,Mostly Cloudy,110,2013-02-05 23:53:00
6:50 PM,66.2,62.6,88,29.97,10.0,East,4.6,-,N/A,,Mostly Cloudy,90,2013-02-06 00:50:00
6:53 PM,66.0,63.0,90,30.00,10.0,East,3.5,-,N/A,,Mostly Cloudy,90,2013-02-06 00:53:00
7:02 PM,66.2,62.6,88,29.98,10.0,Calm,Calm,-,N/A,,Mostly Cloudy,0,2013-02-06 01:02:00
7:53 PM,64.0,62.1,93,30.01,10.0,SSE,4.6,-,N/A,,Scattered Clouds,160,2013-02-06 01:53:00
8:17 PM,64.4,62.6,94,30.00,10.0,East,3.5,-,N/A,,Mostly Cloudy,90,2013-02-06 02:17:00
8:53 PM,64.9,62.1,90,30.04,10.0,Calm,Calm,-,N/A,,Overcast,0,2013-02-06 02:53:00
9:13 PM,62.6,60.8,94,30.02,7.0,Calm,Calm,-,N/A,,Scattered Clouds,0,2013-02-06 03:13:00
9:43 PM,62.6,60.8,94,30.02,2.5,Calm,Calm,-,N/A,,Clear,0,2013-02-06 03:43:00
9:53 PM,60.1,59.0,96,30.04,1.0,Calm,Calm,-,N/A,,Clear,0,2013-02-06 03:53:00
10:02 PM,60.8,59.0,94,30.02,0.8,Calm,Calm,-,N/A,,Clear,0,2013-02-06 04:02:00
10:20 PM,60.8,57.2,88,30.02,1.0,ENE,3.5,-,N/A,,Mist,70,2013-02-06 04:20:00
10:27 PM,60.8,57.2,88,30.02,0.8,East,3.5,-,N/A,,Mist,80,2013-02-06 04:27:00
10:30 PM,60.8,57.2,88,30.02,1.2,ENE,5.8,-,N/A,,Partly Cloudy,70,2013-02-06 04:30:00
10:32 PM,60.8,57.2,88,30.02,3.0,ENE,5.8,-,N/A,,Clear,70,2013-02-06 04:32:00
10:53 PM,59.0,57.9,96,30.04,5.0,Calm,Calm,-,N/A,,Clear,0,2013-02-06 04:53:00
11:08 PM,59.0,57.2,94,30.02,1.5,Calm,Calm,-,N/A,,Clear,0,2013-02-06 05:08:00
11:22 PM,59.0,57.2,94,30.02,1.0,Calm,Calm,-,N/A,,Mist,0,2013-02-06 05:22:00
11:31 PM,57.2,55.4,94,30.02,0.2,ENE,4.6,-,N/A,Fog,Fog,60,2013-02-06 05:31:00
11:53 PM,57.0,55.9,96,30.05,0.2,Calm,Calm,-,N/A,Fog,Fog,0,2013-02-06 05:53:00